Torna al catalogo

STARLINK-3738

AttivoComunicazioniVLEO
NORAD 52117·PAYLOAD·🇺🇸 United States

Lanciato Mar 19, 2022 da Cape Canaveral Space Force Station

Loading…

Prossimi Passaggi (prossime 24 ore)

TLE

AggiornatoSource: CelesTrak SupGP

Epoca: Sep 15, 2026, 01:16 UTC

1 52117C 22029AF  26258.05326389  .00021270  00000+0  62844-3 0  2586
2 52117  53.1575 294.8265 0001257  86.6032 118.5184 15.34378850    13

Traccia STARLINK-3738 in tempo reale con AllMySat

Download on the App Store